User: anonymous   Login
Location: Unspecified
(0.0000°N, 0.0000°E)
Time: 18:59:35
(UTC+00:00)
Language:

LEMUR-2 BRIDGEMAN - Orbit

View from above orbital plane
View from above orbital plane
View from above satellite
View from above satellite

Ground track
Ground track

The orbit data is extracted from the following two-line orbital elements,

1 41595U 16019B   17084.78242297 +.00080424 +00000-0 +41905-3 0  9992
2 41595 051.6327 066.4115 0005067 051.3899 308.7555 15.80194155043498
Epoch (UTC): 25 March 2017 18:46:41
Eccentricity: 0.0005067
inclination: 51.6327°
perigee height: 326 km
apogee height: 333 km
right ascension of ascending node: 66.4115°
argument of perigee: 51.3899°
revolutions per day: 15.80194155
mean anomaly at epoch: 308.7555°
orbit number at epoch: 4349

The dashed part of the orbit path shows where the satellite is in the earth's shadow,  

DLR